STARLINK-35302

Last updated on Mon Oct 20 2025 00:02:07 GMT+0000 (Coordinated Universal Time)

1 65845U 25221Y 25292.25002315 -.01562969 00000+0 -28727-1 0 9994 2 65845 53.1603 27.7760 0001013 93.6965 269.5348 15.51583163 4436
UTC large
Height (km)
Speed (km/s)
/
Latitude / Longitude
Inclination (degrees)
Orbital Period (minutes)
Azimuth
Elevation
Range (km)
Doppler Factor

Next 0 passes for location: London (51.5072 / 0.1276)

Sorry there are no passes over London.